Погода в Лакхнау

Индия     26˚52′19″N   80˚56′29″E
темп.,
°C
ветер,
м/с
пор.,
м/с
влажн.,
%
обл.,
%
осадки,
мм/ч
давл.,
гПа
погр.,
м
5 декабря, сб
сб523:30+19˚всв11310 0.0 101223
02:30+18˚всв01340 0.0 101223
05:30+17˚юв00360 0.0 101123
08:30+20˚ю11330 0.0 101558
11:30+26˚юз11240 0.0 1014566
14:30+28˚сз22200 0.0 10111026
17:30+23˚з00260 0.0 101123
20:30+21˚ссв00290 0.0 101223
6 декабря, вс
вс623:30+20˚юв11320 0.0 101223
02:30+19˚юв11340 0.0 101223
05:30+18˚вюв11360 0.0 101326
08:30+21˚юв12340 0.0 101699
11:30+26˚ю12260 0.0 1016579
14:30+28˚з23230 0.0 10121119
17:30+24˚з22300 0.0 101233
20:30+22˚з12340 0.0 101323
7 декабря, пн
пн723:30+21˚з22380 0.0 101326
02:30+19˚зсз12410 0.0 101328
05:30+18˚з23440 0.0 101345
08:30+20˚з24410 0.0 1016166
11:30+26˚сз33290 0.0 1016694
14:30+28˚сз35240 0.0 10131421
17:30+24˚зсз24300 0.0 101393
20:30+22˚зсз12340 0.0 101523
8 декабря, вт
вт823:30+20˚зюз22370 0.0 101526
02:30+19˚зсз12390 0.0 101523
05:30+18˚з12390 0.0 101531
08:30+20˚зсз22340 0.0 1017150
11:30+25˚зсз23240 0.0 1016639
14:30+28˚сз34190 0.0 10131209
17:30+23˚зсз22260 0.0 101353
20:30+21˚зсз22310 0.0 101438
9 декабря, ср
ср923:30+20˚зсз22340 0.0 101438
02:30+19˚сз22360 0.0 101352
05:30+17˚сз12400 0.0 101336
08:30+20˚з22380 0.0 1015141
11:30+26˚зсз34260 0.0 1014704
14:30+28˚сз46220 0.0 10111218
17:30+24˚зсз232912 0.0 101169
20:30+22˚з22341 0.0 101223